• In Uzbekistan
  • List of Countries
  • For 7 days
  • Water Temperature
  • Satellite Maps
  • Weather Map
  • Weather Widgets
  • user-avatar
    Login

    Hourly Weather Rawson

    Today, 21 July, Friday

    Time Temperature Precipitation Wind Pressure Humidity
    00:00 +8°C° 0 mm 2 mps 761 mmHg 67%
    01:00 +8°C° 0 mm 2 mps 761 mmHg 68%
    02:00 +8°C° 0 mm 2 mps 761 mmHg 69%
    03:00 +8°C° 0 mm 2 mps 761 mmHg 69%
    04:00 +8°C° 0 mm 3 mps 761 mmHg 70%
    05:00 +8°C° 0 mm 3 mps 760 mmHg 70%
    06:00 +7°C° 0 mm 4 mps 760 mmHg 69%
    07:00 +7°C° 0 mm 4 mps 760 mmHg 68%
    08:00 +8°C° 0 mm 5 mps 760 mmHg 67%
    09:00 +9°C° 0 mm 7 mps 759 mmHg 61%
    10:00 +10°C° 0 mm 8 mps 758 mmHg 56%
    11:00 +12°C° 0 mm 9 mps 758 mmHg 51%
    12:00 +15°C° 0 mm 9 mps 757 mmHg 49%
    13:00 +16°C° 0 mm 8 mps 756 mmHg 47%
    14:00 +18°C° 0 mm 7 mps 755 mmHg 45%
    15:00 +17°C° 0 mm 7 mps 755 mmHg 48%
    16:00 +17°C° 0 mm 6 mps 755 mmHg 50%
    17:00 +16°C° 0 mm 5 mps 754 mmHg 53%
    18:00 +15°C° 0 mm 5 mps 754 mmHg 55%
    19:00 +15°C° 0 mm 6 mps 754 mmHg 57%
    20:00 +14°C° 0 mm 6 mps 754 mmHg 59%
    21:00 +14°C° 0 mm 6 mps 754 mmHg 59%
    22:00 +14°C° 0 mm 6 mps 753 mmHg 58%
    23:00 +14°C° 0 mm 6 mps 753 mmHg 58%

    Tomorrow, 22 July, Saturday

    Time Temperature Precipitation Wind Pressure Humidity
    00:00 +13°C° 0 mm 6 mps 753 mmHg 59%
    01:00 +13°C° 0 mm 6 mps 752 mmHg 61%
    02:00 +13°C° 0 mm 5 mps 752 mmHg 62%
    03:00 +12°C° 0 mm 5 mps 751 mmHg 63%
    04:00 +12°C° 0 mm 5 mps 751 mmHg 63%
    05:00 +11°C° 0 mm 4 mps 750 mmHg 63%
    06:00 +11°C° 0 mm 4 mps 750 mmHg 62%
    07:00 +11°C° 0 mm 4 mps 750 mmHg 61%
    08:00 +11°C° 0 mm 4 mps 750 mmHg 60%
    09:00 +12°C° 0 mm 5 mps 749 mmHg 54%
    10:00 +13°C° 0 mm 5 mps 749 mmHg 49%
    11:00 +14°C° 0 mm 5 mps 749 mmHg 43%
    12:00 +15°C° 0 mm 6 mps 748 mmHg 38%
    13:00 +16°C° 0 mm 7 mps 748 mmHg 32%
    14:00 +18°C° 0 mm 8 mps 747 mmHg 26%
    15:00 +17°C° 0 mm 8 mps 747 mmHg 28%
    16:00 +16°C° 0 mm 8 mps 747 mmHg 30%
    17:00 +16°C° 0 mm 8 mps 747 mmHg 31%
    18:00 +15°C° 0 mm 8 mps 747 mmHg 34%
    19:00 +13°C° 0 mm 8 mps 747 mmHg 36%
    20:00 +12°C° 0 mm 8 mps 747 mmHg 39%
    21:00 +12°C° 0 mm 9 mps 747 mmHg 41%
    22:00 +11°C° 0 mm 9 mps 748 mmHg 44%
    23:00 +11°C° 0 mm 9 mps 748 mmHg 46%

    Day after tomorrow, 23 July, Sunday

    Time Temperature Precipitation Wind Pressure Humidity
    00:00 +9°C° 0 mm 10 mps 748 mmHg 44%
    01:00 +9°C° 0 mm 10 mps 749 mmHg 42%
    02:00 +8°C° 0 mm 11 mps 749 mmHg 40%
    03:00 +8°C° 0 mm 11 mps 749 mmHg 41%
    04:00 +7°C° 0 mm 10 mps 749 mmHg 42%
    05:00 +7°C° 0 mm 10 mps 749 mmHg 44%
    06:00 +7°C° 0 mm 11 mps 749 mmHg 43%
    07:00 +7°C° 0 mm 12 mps 750 mmHg 42%
    08:00 +7°C° 0 mm 13 mps 751 mmHg 41%
    09:00 +8°C° 0 mm 14 mps 751 mmHg 40%
    10:00 +9°C° 0 mm 14 mps 752 mmHg 39%
    11:00 +10°C° 0 mm 14 mps 753 mmHg 38%
    12:00 +12°C° 0 mm 13 mps 753 mmHg 36%
    13:00 +12°C° 0 mm 13 mps 753 mmHg 33%
    14:00 +13°C° 0 mm 12 mps 754 mmHg 31%
    15:00 +12°C° 0 mm 10 mps 754 mmHg 32%
    16:00 +12°C° 0 mm 8 mps 755 mmHg 34%
    17:00 +11°C° 0 mm 6 mps 755 mmHg 36%
    18:00 +10°C° 0 mm 6 mps 756 mmHg 38%
    19:00 +9°C° 0 mm 6 mps 757 mmHg 40%
    20:00 +9°C° 0 mm 6 mps 757 mmHg 42%
    21:00 +8°C° 0 mm 6 mps 758 mmHg 43%
    22:00 +8°C° 0 mm 6 mps 758 mmHg 44%
    23:00 +6°C° 0 mm 7 mps 758 mmHg 45%

    24 July, Monday

    Time Temperature Precipitation Wind Pressure Humidity
    00:00 +6°C° 0 mm 7 mps 758 mmHg 46%
    01:00 +6°C° 0 mm 7 mps 758 mmHg 46%
    02:00 +5°C° 0 mm 7 mps 758 mmHg 47%
    03:00 +5°C° 0 mm 7 mps 758 mmHg 48%
    04:00 +5°C° 0 mm 8 mps 757 mmHg 50%
    05:00 +5°C° 0 mm 8 mps 757 mmHg 51%
    06:00 +5°C° 0 mm 8 mps 757 mmHg 51%
    07:00 +5°C° 0 mm 9 mps 757 mmHg 50%
    08:00 +5°C° 0 mm 9 mps 757 mmHg 49%
    09:00 +7°C° 0 mm 10 mps 757 mmHg 46%
    10:00 +8°C° 0 mm 10 mps 758 mmHg 42%
    11:00 +11°C° 0 mm 11 mps 758 mmHg 39%
    12:00 +11°C° 0 mm 10 mps 758 mmHg 35%
    13:00 +12°C° 0 mm 10 mps 758 mmHg 30%
    14:00 +12°C° 0 mm 9 mps 759 mmHg 26%
    15:00 +12°C° 0 mm 8 mps 759 mmHg 27%
    16:00 +11°C° 0 mm 6 mps 760 mmHg 28%
    17:00 +10°C° 0 mm 5 mps 760 mmHg 29%
    18:00 +9°C° 0 mm 5 mps 761 mmHg 32%
    19:00 +9°C° 0 mm 5 mps 761 mmHg 34%
    20:00 +8°C° 0 mm 5 mps 762 mmHg 36%
    21:00 +8°C° 0 mm 5 mps 762 mmHg 37%
    22:00 +7°C° 0 mm 5 mps 762 mmHg 38%
    23:00 +7°C° 0 mm 5 mps 763 mmHg 39%

    25 July, Tuesday

    Time Temperature Precipitation Wind Pressure Humidity
    00:00 +7°C° 0 mm 5 mps 763 mmHg 40%
    01:00 +7°C° 0 mm 5 mps 763 mmHg 41%
    02:00 +6°C° 0 mm 5 mps 763 mmHg 42%
    03:00 +6°C° 0 mm 4 mps 763 mmHg 44%
    04:00 +5°C° 0 mm 4 mps 762 mmHg 46%
    05:00 +5°C° 0 mm 4 mps 762 mmHg 48%
    06:00 +5°C° 0 mm 4 mps 762 mmHg 53%
    07:00 +5°C° 0 mm 5 mps 762 mmHg 57%
    08:00 +3°C° 0 mm 6 mps 762 mmHg 62%
    09:00 +5°C° 0 mm 6 mps 762 mmHg 55%
    10:00 +8°C° 0 mm 6 mps 762 mmHg 48%
    11:00 +10°C° 0 mm 7 mps 762 mmHg 41%
    12:00 +12°C° 0 mm 7 mps 761 mmHg 38%
    13:00 +14°C° 0 mm 7 mps 761 mmHg 35%
    14:00 +15°C° 0 mm 6 mps 760 mmHg 32%
    15:00 +15°C° 0 mm 6 mps 760 mmHg 34%
    16:00 +14°C° 0 mm 5 mps 760 mmHg 35%
    17:00 +14°C° 0 mm 5 mps 760 mmHg 37%
    18:00 +13°C° 0 mm 6 mps 760 mmHg 38%
    19:00 +11°C° 0 mm 8 mps 760 mmHg 38%
    20:00 +11°C° 0 mm 9 mps 760 mmHg 39%
    21:00 +10°C° 0 mm 9 mps 760 mmHg 41%
    22:00 +9°C° 0 mm 10 mps 760 mmHg 42%
    23:00 +9°C° 0 mm 10 mps 760 mmHg 43%

    26 July, Wednesday

    Time Temperature Precipitation Wind Pressure Humidity
    00:00 +10°C° 0 mm 9 mps 759 mmHg 46%
    01:00 +8°C° 0 mm 9 mps 759 mmHg 48%
    02:00 +8°C° 0 mm 9 mps 759 mmHg 50%
    03:00 +8°C° 0 mm 9 mps 758 mmHg 50%
    04:00 +8°C° 0 mm 9 mps 758 mmHg 51%
    05:00 +8°C° 0 mm 9 mps 758 mmHg 51%
    06:00 +8°C° 0 mm 9 mps 757 mmHg 52%
    07:00 +8°C° 0 mm 9 mps 757 mmHg 53%
    08:00 +8°C° 0 mm 9 mps 757 mmHg 54%
    09:00 +11°C° 0 mm 10 mps 757 mmHg 51%
    10:00 +12°C° 0 mm 10 mps 757 mmHg 48%
    11:00 +14°C° 0 mm 11 mps 757 mmHg 45%
    12:00 +16°C° 0 mm 11 mps 756 mmHg 44%
    13:00 +17°C° 0 mm 11 mps 755 mmHg 44%
    14:00 +17°C° 0 mm 11 mps 755 mmHg 44%
    15:00 +17°C° 0 mm 11 mps 754 mmHg 47%
    16:00 +16°C° 0 mm 11 mps 754 mmHg 51%
    17:00 +14°C° 0 mm 11 mps 754 mmHg 54%
    18:00 +14°C° 0 mm 10 mps 754 mmHg 53%
    19:00 +13°C° 0 mm 10 mps 754 mmHg 52%
    20:00 +13°C° 0 mm 9 mps 754 mmHg 50%
    21:00 +13°C° 0 mm 9 mps 754 mmHg 48%
    22:00 +12°C° 0 mm 8 mps 755 mmHg 46%
    23:00 +12°C° 0 mm 8 mps 755 mmHg 44%
    Show more